SCP
0 0 0 -0 -0 -0 -0 -0 -0 0 0 0 0 0 0 -0 -0 -0 -0 -0 -0 -0 -0 -0 -0 -0 0 0 0 0 0 0 0 -0 0 0 0 0 0 0 0 0 -0
0 0 0 0 -0 -0 -0 -0 -0 -0 -0 0 0 0 -0 -0 -0 -0 -0 -0 -0 -0 -0 -0 -0 0 0 0 0 0 0 0 0 0 0 0 0 -0 -0 0 0 0 -0
0 0 0 -0 -0 -0 -0 -0 -0 -0 -0 0 -0 -0 -0 -0 -0 -0 -0 -0 -0 -0 -0 -0 -0 0 0 0 0 0 0 0 0 0 0 0 0 -0 -0 0 0 -0 0
0 0 0 0 -0 -0 0 0 0 0 0 -0 -0 -0 -0 -0 -0 -0 -0 -0 -0 -0 -0 -0 0 0 0 0 0 0 0 -0 0 0 0 0 0 0 0 0 0 0 0
0 0 -0 -0 -0 -0 0 0 0 0 0 0 -0 -0 -0 -0 -0 -0 -0 -0 -0 -0 -0 0 0 0 0 0 0 0 0 0 0 0 0 0 0 0 0 0 0 0 0
0 -0 -0 -0 -0 -0 -0 0 0 0 0 -0 -0 -0 -0 -0 -0 -0 -0 -0 -0 0 0 0 0 -0 -0 0 0 0 0 0 0 0 0 0 0 0 0 0 0 0 0
0 -0 -0 -0 -0 -0 -0 -0 -0 0 -0 -0 -0 -0 -0 -0 -0 -0 -0 -0 0 0 0 0 0 0 0 0 0 0 0 0 0 0 0 0 0 0 0 0 0 0 0
0 0 -0 -0 -0 -0 -0 -0 0 -0 -0 -0 -0 -0 -0 -0 -0 -0 -0 -0 0 0 0 0 0 0 0 0 0 0 0 0 0 0 0 0 0 0 0 0 0 0 0
-0 -0 0 -0 -0 0 0 -0 -0 -0 -0 -0 -0 -0 -0 -0 -0 -0 -0 -0 0 0 0 0 0 0 0 0 0 0 0 0 0 0 0 0 0 0 0 0 0 0 0
-0 -0 -0 0 -0 -0 -0 -0 -0 -0 -0 -0 -0 -0 -0 -0 -0 -0 -0 -0 -0 -0 -0 -0 0 0 0 0 0 0 0 0 0 0 0 0 0 0 0 0 0 0 0
-0 -0 -0 -0 -0 -0 -0 -0 -0 -0 -0 -0 -0 -0 -0 0 -0 -0 -0 -0 -0 -0 -0 0 0 0 0 0 0 0 0 0 0 0 0 0 0 0 0 0 0 0 0
-0 -0 -0 -0 -0 -0 -0 -0 -0 -0 -0 -0 -0 -0 -0 0 -0 -0 -0 -0 -0 -0 0 0 0 0 0 0 0 0 0 0 0 0 0 0 0 0 0 0 0 0 0
-0 -0 -0 -0 -0 -0 -0 -0 -0 -0 -0 -0 -0 -0 -0 -0 -0 -0 -0 -0 0 0 0 0 0 0 0 0 0 0 0 0 0 0 0 0 0 0 0 0 0 0 0
-0 -0 -0 -0 -0 -0 -0 -0 -0 -0 -0 -0 -0 -0 -0 -0 -0 -0 -0 -0 0 0 0 0 0 0 0 0 0 0 0 0 0 0 0 0 0 0 0 0 0 0 0
0 0 0 -0 -0 -0 -0 -0 -0 -0 -0 -0 -0 -0 -0 -0 -0 -0 -0 0 0 0 0 0 0 0 0 0 0 0 0 0 0 0 0 0 0 0 0 0 0 0 0
0 -0 0 0 0 0 0 0 0 0 0 0 0 0 0 0 0 0 0 0 0 0 0 0 0 0 0 0 0 0 0 0 0 0 0 0 0 0 0 0 0 0 0
0 0 -0 0 0 0 0 0 0 0 0 0 0 0 0 0 0 0 0 0 0 0 0 0 0 0 0 0 0 0 0 0 0 0 0 0 0 0 0 0 0 0 0
0 0 0 0 0 0 0 0 0 0 0 0 0 0 0 0 0 0 0 0 0 0 0 0 0 0 0 0 0 0 0 0 0 0 0 0 0 0 0 0 0 0 0
0 0 0 0 0 0 0 0 0 0 0 0 0 0 0 0 0 0 0 0 0 0 0 0 0 0 0 0 0 0 0 0 0 0 0 0 0 0 0 0 0 0 0
0 0 0 0 0 0 0 0 0 0 0 0 0 0 0 0 0 0 0 0 0 0 0 0 0 0 0 0 0 0 0 0 0 0 0 0 0 0 0 0 0 0 0
0 0 0 0 0 0 0 0 0 0 0 0 0 0 0 0 0 0 0 0 0 0 0 0 0 0 0 0 0 0 0 0 0 0 0 0 0 0 0 0 0 0 0
0 0 0 0 0 0 0 0 0 0 0 0 0 0 0 0 0 0 0 0 0 0 0 0 0 0 0 0 0 0 0 0 0 0 0 0 0 0 0 0 0 0 0
0 0 0 0 0 0 0 0 0 0 0 0 0 0 0 0 0 0 0 0 0 0 0 0 0 0 0 0 0 0 0 0 0 0 0 0 0 0 0 0 0 0 0
0 0 0 0 0 0 0 0 0 0 0 0 0 0 0 0 0 0 0 0 0 0 0 0 0 0 0 0 0 0 0 0 0 0 0 0 0 0 0 0 0 0 0
0 0 0 0 0 0 0 0 0 0 0 0 0 0 0 0 0 0 0 0 0 0 0 0 0 0 0 0 0 0 0 0 0 0 0 0 0 0 0 0 0 0 0
0 0 0 0 0 0 0 0 0 0 0 0 0 0 0 0 0 0 0 0 0 0 0 0 0 0 0 0 0 0 0 0 0 0 0 0 0 0 0 0 0 0 0
Wind_Speed_500mb
18 14 19 21 21 24 25 26 26 27 27 26 28 26 27 26 25 24 23 21 22 23 23 24 23 25 28 31 30 32 36 39 36 36 34 32 40 44 45 40 35 35 35
23 20 22 23 25 27 29 26 28 25 26 26 27 30 27 26 26 25 23 22 23 26 26 28 29 30 30 34 38 36 41 34 31 31 34 38 45 41 41 38 34 35 39
23 27 28 26 26 31 31 28 26 24 22 27 31 31 24 21 21 23 23 25 27 30 31 32 33 33 35 40 39 38 37 28 25 36 41 45 40 38 35 31 29 33 39
27 29 30 27 27 31 34 33 29 29 31 30 27 27 22 23 24 23 24 26 30 33 34 34 34 35 39 42 40 37 35 24 37 34 37 39 36 29 27 23 25 27 35
30 32 33 27 28 31 35 35 33 32 32 30 25 26 23 20 22 24 24 27 32 33 33 33 35 37 40 43 38 39 32 23 21 25 33 37 34 32 25 23 26 29 26
30 33 34 29 30 31 34 35 35 34 33 30 26 23 20 19 19 20 22 25 29 30 31 32 34 35 36 35 35 32 24 27 28 29 35 33 33 31 31 30 30 31 33
32 33 33 28 27 29 31 35 36 33 30 26 21 18 17 16 17 17 21 24 26 28 29 31 32 32 32 33 35 30 24 23 24 27 29 31 32 32 31 31 32 34 35
34 33 33 28 27 27 30 32 33 28 26 23 21 17 14 13 15 17 20 22 24 26 27 29 29 30 29 31 31 31 19 19 27 24 26 29 31 30 30 31 32 32 33
33 33 32 29 27 27 30 30 31 28 26 23 21 17 15 17 17 17 18 21 23 24 25 26 27 28 28 26 25 23 17 13 20 21 22 26 26 27 28 29 29 29 29
32 32 32 30 29 27 29 28 28 27 24 21 19 17 16 15 14 18 17 18 19 20 21 22 23 24 25 22 18 16 12 15 18 18 19 20 21 22 24 24 25 25 26
32 35 33 32 30 29 27 27 26 25 22 20 18 16 14 15 17 17 16 15 16 17 18 18 17 16 16 16 15 13 10 11 13 14 14 15 16 17 19 19 20 22 23
40 42 36 33 31 29 27 25 24 22 21 19 17 15 15 16 16 14 14 13 13 14 14 13 12 11 10 10 11 9 7 6 9 8 10 12 13 13 15 16 17 19 20
46 43 42 36 34 31 29 27 24 22 20 19 15 11 11 10 11 12 11 10 9 9 8 9 9 8 8 7 6 5 3 5 6 6 9 10 11 14 16 15 16 18 19
49 48 43 38 34 32 32 29 25 23 21 20 16 12 10 9 8 9 10 9 7 7 5 6 5 4 3 2 2 2 4 6 8 9 9 10 11 14 16 16 17 20 23
50 50 48 47 41 36 35 33 31 26 23 19 18 15 13 12 9 7 7 5 4 3 2 2 3 2 1 2 3 5 6 7 9 11 11 11 12 13 13 15 16 19 21
54 55 52 54 49 42 39 36 31 28 26 25 22 19 17 14 12 9 8 7 6 5 6 5 4 4 6 6 5 6 7 9 13 14 15 14 14 14 14 15 16 20 22
59 53 57 58 56 50 43 41 38 32 30 28 24 23 22 21 17 15 14 13 12 12 11 10 9 8 8 9 9 8 10 12 14 18 19 18 17 15 16 15 18 21 20
63 57 55 58 64 59 50 46 45 39 35 33 28 27 26 26 24 23 21 20 20 17 16 15 13 14 12 12 16 16 19 22 18 18 17 15 16 17 16 17 18 19 18
66 63 59 59 60 61 56 52 50 46 43 37 34 32 30 29 30 30 28 25 26 23 19 18 18 13 15 15 18 18 16 17 17 17 15 13 16 14 14 16 16 14 23
71 68 63 59 57 58 58 54 50 51 51 46 42 39 37 35 33 35 33 32 32 29 24 20 16 20 19 17 19 21 19 20 19 19 16 15 16 18 15 12 11 20 21
66 73 72 67 62 58 63 61 57 54 49 46 44 43 42 39 38 38 38 39 38 35 27 18 25 24 24 23 24 26 23 24 21 12 11 13 18 17 14 15 21 23 31
71 72 71 71 65 65 66 64 59 52 48 40 37 39 39 38 39 37 38 38 36 33 33 31 30 30 29 26 31 32 28 24 5 16 23 11 18 12 19 25 26 24 31
77 78 75 70 68 66 66 65 60 52 49 49 48 46 45 43 41 38 33 33 32 31 31 29 32 35 31 32 35 32 15 8 14 25 15 19 24 28 33 29 24 37 32
85 78 71 72 68 67 65 65 65 64 61 52 46 41 41 40 36 37 37 36 35 36 35 34 34 37 35 35 38 39 37 35 25 15 24 26 31 30 31 30 32 35 31
80 77 74 69 67 67 66 65 65 65 60 52 47 44 43 42 42 39 42 43 43 43 41 40 37 32 34 35 38 41 39 35 34 36 33 26 23 26 28 30 34 29 25
73 74 76 71 69 67 65 65 64 63 62 57 54 52 48 44 44 43 47 48 48 48 46 40 38 42 45 42 44 43 41 40 36 33 32 30 28 34 32 32 33 26 28
Wind_Direction_500mb
171 171 159 139 132 132 121 119 113 110 105 97 93 96 96 92 82 77 79 83 86 82 79 84 87 80 74 73 72 73 73 65 61 81 73 67 75 72 72 70 64 59 63
164 163 151 139 134 141 136 123 117 110 104 99 99 101 96 93 79 80 81 80 78 76 74 72 75 77 78 82 87 76 78 64 53 92 79 77 77 79 79 78 67 61 63
160 148 136 132 131 139 145 136 125 113 99 103 113 109 107 99 88 82 83 86 84 79 76 78 80 83 88 98 93 82 82 71 61 79 83 75 81 86 89 86 75 58 62
148 140 133 130 129 136 147 149 137 120 118 109 110 113 102 97 93 89 96 98 86 84 81 80 82 88 94 103 96 89 82 67 77 72 81 81 83 88 83 77 61 56 75
139 135 132 125 124 130 143 149 145 134 126 116 112 121 122 107 99 94 96 90 89 85 80 80 87 93 97 103 100 90 84 66 74 72 73 78 76 78 77 68 56 59 78
136 137 135 126 123 127 134 141 144 141 139 131 123 117 116 112 109 108 102 94 95 90 85 85 88 93 99 101 98 93 86 67 73 72 70 74 69 67 65 63 63 63 61
147 146 140 132 127 130 132 138 143 148 147 148 144 130 116 107 114 111 106 98 97 91 88 89 92 96 100 100 105 101 77 54 62 68 68 67 65 62 62 61 61 60 57
152 150 144 137 133 130 132 137 145 148 154 159 154 144 130 113 112 106 104 98 94 91 89 90 92 93 96 103 104 99 87 75 67 65 66 64 62 60 60 60 61 58 56
158 155 150 146 143 136 140 140 135 132 132 135 141 147 127 106 110 105 103 97 93 92 93 92 92 92 95 101 104 109 111 65 58 60 59 59 60 62 60 58 56 54 53
166 163 161 157 153 148 144 138 138 138 137 136 135 134 129 128 116 114 108 103 97 95 94 94 96 97 98 100 100 101 105 78 72 71 60 56 60 60 57 54 50 47 46
180 172 170 168 163 161 155 150 148 146 144 143 144 142 137 125 122 123 122 113 106 100 97 99 100 102 101 99 92 92 95 66 73 70 60 54 54 52 52 49 47 43 40
192 179 175 177 174 171 169 166 161 158 154 153 152 149 141 124 119 126 123 125 120 115 108 102 97 93 93 86 87 93 91 65 69 62 48 38 40 41 33 31 35 36 33
192 189 182 184 181 181 181 180 176 174 169 165 166 158 136 134 129 127 129 134 131 120 113 105 101 90 76 68 70 73 30 8 13 25 21 26 19 12 10 16 19 20 17
199 195 188 191 192 188 190 188 190 188 186 178 178 177 165 166 154 156 140 143 138 128 139 117 112 104 103 81 20 6 334 334 330 338 344 348 352 353 356 359 3 359 1
208 209 196 194 201 203 200 198 196 196 199 195 194 196 194 194 196 189 167 163 145 156 169 190 168 191 262 296 313 314 311 311 313 318 325 325 331 336 342 341 342 342 343
215 214 206 201 206 209 206 209 209 203 206 207 206 207 214 219 214 225 228 227 226 223 238 246 239 238 260 268 278 294 308 318 319 319 315 317 316 320 321 320 326 330 332
221 217 210 208 209 214 212 210 215 213 214 218 217 217 224 231 231 233 238 246 248 248 249 259 261 262 275 286 294 314 323 325 326 323 314 312 306 304 308 307 317 327 336
222 221 217 213 214 217 218 215 219 223 225 225 227 225 231 236 242 242 245 250 253 253 256 256 256 259 285 305 314 314 319 328 334 328 322 316 310 303 307 310 314 326 330
220 226 223 220 217 218 220 218 223 229 232 235 236 239 237 240 245 250 253 253 258 259 256 260 269 281 270 278 286 302 327 349 339 317 312 313 322 317 315 307 310 311 317
217 226 230 227 223 221 220 219 219 224 233 239 240 244 247 247 246 252 253 252 256 260 250 267 260 261 269 281 288 303 322 336 330 327 302 302 309 307 297 289 293 310 311
220 221 228 230 225 221 221 221 222 225 229 234 239 242 244 249 251 250 250 251 252 257 257 259 255 261 268 282 289 293 307 314 328 323 318 323 322 311 300 293 307 301 301
219 218 226 229 227 222 225 228 231 234 236 242 243 244 247 244 246 253 246 245 251 254 248 248 253 261 267 273 280 289 302 310 321 323 321 315 302 279 292 286 294 303 314
219 221 226 225 226 222 222 224 229 237 241 240 237 238 241 246 241 250 244 242 245 246 248 241 246 253 260 267 271 279 279 268 279 307 301 292 291 299 299 290 298 309 308
222 224 224 224 226 224 222 224 225 229 233 239 241 245 245 252 249 245 248 249 247 250 250 251 254 260 264 268 268 268 274 275 281 283 290 289 289 291 290 283 294 308 303
222 223 221 222 220 223 221 225 228 232 237 243 243 243 242 243 249 249 248 249 248 249 252 253 254 264 268 272 269 271 276 274 269 265 271 289 284 279 281 297 292 296 300
221 221 220 220 221 222 222 225 229 234 238 238 239 244 248 248 249 250 247 251 250 250 251 254 253 257 264 268 264 267 265 271 275 271 272 283 286 281 282 285 287 278 300
Wind_Speed_850mb
18 14 19 21 21 24 25 26 26 27 27 26 28 26 27 26 25 24 23 21 22 23 23 24 23 25 28 31 30 32 36 39 36 36 34 32 40 44 45 40 35 35 35
23 20 22 23 25 27 29 26 28 25 26 26 27 30 27 26 26 25 23 22 23 26 26 28 29 30 30 34 38 36 41 34 31 31 34 38 45 41 41 38 34 35 39
23 27 28 26 26 31 31 28 26 24 22 27 31 31 24 21 21 23 23 25 27 30 31 32 33 33 35 40 39 38 37 28 25 36 41 45 40 38 35 31 29 33 39
27 29 30 27 27 31 34 33 29 29 31 30 27 27 22 23 24 23 24 26 30 33 34 34 34 35 39 42 40 37 35 24 37 34 37 39 36 29 27 23 25 27 35
30 32 33 27 28 31 35 35 33 32 32 30 25 26 23 20 22 24 24 27 32 33 33 33 35 37 40 43 38 39 32 23 21 25 33 37 34 32 25 23 26 29 26
30 33 34 29 30 31 34 35 35 34 33 30 26 23 20 19 19 20 22 25 29 30 31 32 34 35 36 35 35 32 24 27 28 29 35 33 33 31 31 30 30 31 33
32 33 33 28 27 29 31 35 36 33 30 26 21 18 17 16 17 17 21 24 26 28 29 31 32 32 32 33 35 30 24 23 24 27 29 31 32 32 31 31 32 34 35
34 33 33 28 27 27 30 32 33 28 26 23 21 17 14 13 15 17 20 22 24 26 27 29 29 30 29 31 31 31 19 19 27 24 26 29 31 30 30 31 32 32 33
33 33 32 29 27 27 30 30 31 28 26 23 21 17 15 17 17 17 18 21 23 24 25 26 27 28 28 26 25 23 17 13 20 21 22 26 26 27 28 29 29 29 29
32 32 32 30 29 27 29 28 28 27 24 21 19 17 16 15 14 18 17 18 19 20 21 22 23 24 25 22 18 16 12 15 18 18 19 20 21 22 24 24 25 25 26
32 35 33 32 30 29 27 27 26 25 22 20 18 16 14 15 17 17 16 15 16 17 18 18 17 16 16 16 15 13 10 11 13 14 14 15 16 17 19 19 20 22 23
40 42 36 33 31 29 27 25 24 22 21 19 17 15 15 16 16 14 14 13 13 14 14 13 12 11 10 10 11 9 7 6 9 8 10 12 13 13 15 16 17 19 20
46 43 42 36 34 31 29 27 24 22 20 19 15 11 11 10 11 12 11 10 9 9 8 9 9 8 8 7 6 5 3 5 6 6 9 10 11 14 16 15 16 18 19
49 48 43 38 34 32 32 29 25 23 21 20 16 12 10 9 8 9 10 9 7 7 5 6 5 4 3 2 2 2 4 6 8 9 9 10 11 14 16 16 17 20 23
50 50 48 47 41 36 35 33 31 26 23 19 18 15 13 12 9 7 7 5 4 3 2 2 3 2 1 2 3 5 6 7 9 11 11 11 12 13 13 15 16 19 21
54 55 52 54 49 42 39 36 31 28 26 25 22 19 17 14 12 9 8 7 6 5 6 5 4 4 6 6 5 6 7 9 13 14 15 14 14 14 14 15 16 20 22
59 53 57 58 56 50 43 41 38 32 30 28 24 23 22 21 17 15 14 13 12 12 11 10 9 8 8 9 9 8 10 12 14 18 19 18 17 15 16 15 18 21 20
63 57 55 58 64 59 50 46 45 39 35 33 28 27 26 26 24 23 21 20 20 17 16 15 13 14 12 12 16 16 19 22 18 18 17 15 16 17 16 17 18 19 18
66 63 59 59 60 61 56 52 50 46 43 37 34 32 30 29 30 30 28 25 26 23 19 18 18 13 15 15 18 18 16 17 17 17 15 13 16 14 14 16 16 14 23
71 68 63 59 57 58 58 54 50 51 51 46 42 39 37 35 33 35 33 32 32 29 24 20 16 20 19 17 19 21 19 20 19 19 16 15 16 18 15 12 11 20 21
66 73 72 67 62 58 63 61 57 54 49 46 44 43 42 39 38 38 38 39 38 35 27 18 25 24 24 23 24 26 23 24 21 12 11 13 18 17 14 15 21 23 31
71 72 71 71 65 65 66 64 59 52 48 40 37 39 39 38 39 37 38 38 36 33 33 31 30 30 29 26 31 32 28 24 5 16 23 11 18 12 19 25 26 24 31
77 78 75 70 68 66 66 65 60 52 49 49 48 46 45 43 41 38 33 33 32 31 31 29 32 35 31 32 35 32 15 8 14 25 15 19 24 28 33 29 24 37 32
85 78 71 72 68 67 65 65 65 64 61 52 46 41 41 40 36 37 37 36 35 36 35 34 34 37 35 35 38 39 37 35 25 15 24 26 31 30 31 30 32 35 31
80 77 74 69 67 67 66 65 65 65 60 52 47 44 43 42 42 39 42 43 43 43 41 40 37 32 34 35 38 41 39 35 34 36 33 26 23 26 28 30 34 29 25
73 74 76 71 69 67 65 65 64 63 62 57 54 52 48 44 44 43 47 48 48 48 46 40 38 42 45 42 44 43 41 40 36 33 32 30 28 34 32 32 33 26 28
Wind_Direction_850mb
171 171 159 139 132 132 121 119 113 110 105 97 93 96 96 92 82 77 79 83 86 82 79 84 87 80 74 73 72 73 73 65 61 81 73 67 75 72 72 70 64 59 63
164 163 151 139 134 141 136 123 117 110 104 99 99 101 96 93 79 80 81 80 78 76 74 72 75 77 78 82 87 76 78 64 53 92 79 77 77 79 79 78 67 61 63
160 148 136 132 131 139 145 136 125 113 99 103 113 109 107 99 88 82 83 86 84 79 76 78 80 83 88 98 93 82 82 71 61 79 83 75 81 86 89 86 75 58 62
148 140 133 130 129 136 147 149 137 120 118 109 110 113 102 97 93 89 96 98 86 84 81 80 82 88 94 103 96 89 82 67 77 72 81 81 83 88 83 77 61 56 75
139 135 132 125 124 130 143 149 145 134 126 116 112 121 122 107 99 94 96 90 89 85 80 80 87 93 97 103 100 90 84 66 74 72 73 78 76 78 77 68 56 59 78
136 137 135 126 123 127 134 141 144 141 139 131 123 117 116 112 109 108 102 94 95 90 85 85 88 93 99 101 98 93 86 67 73 72 70 74 69 67 65 63 63 63 61
147 146 140 132 127 130 132 138 143 148 147 148 144 130 116 107 114 111 106 98 97 91 88 89 92 96 100 100 105 101 77 54 62 68 68 67 65 62 62 61 61 60 57
152 150 144 137 133 130 132 137 145 148 154 159 154 144 130 113 112 106 104 98 94 91 89 90 92 93 96 103 104 99 87 75 67 65 66 64 62 60 60 60 61 58 56
158 155 150 146 143 136 140 140 135 132 132 135 141 147 127 106 110 105 103 97 93 92 93 92 92 92 95 101 104 109 111 65 58 60 59 59 60 62 60 58 56 54 53
166 163 161 157 153 148 144 138 138 138 137 136 135 134 129 128 116 114 108 103 97 95 94 94 96 97 98 100 100 101 105 78 72 71 60 56 60 60 57 54 50 47 46
180 172 170 168 163 161 155 150 148 146 144 143 144 142 137 125 122 123 122 113 106 100 97 99 100 102 101 99 92 92 95 66 73 70 60 54 54 52 52 49 47 43 40
192 179 175 177 174 171 169 166 161 158 154 153 152 149 141 124 119 126 123 125 120 115 108 102 97 93 93 86 87 93 91 65 69 62 48 38 40 41 33 31 35 36 33
192 189 182 184 181 181 181 180 176 174 169 165 166 158 136 134 129 127 129 134 131 120 113 105 101 90 76 68 70 73 30 8 13 25 21 26 19 12 10 16 19 20 17
199 195 188 191 192 188 190 188 190 188 186 178 178 177 165 166 154 156 140 143 138 128 139 117 112 104 103 81 20 6 334 334 330 338 344 348 352 353 356 359 3 359 1
208 209 196 194 201 203 200 198 196 196 199 195 194 196 194 194 196 189 167 163 145 156 169 190 168 191 262 296 313 314 311 311 313 318 325 325 331 336 342 341 342 342 343
215 214 206 201 206 209 206 209 209 203 206 207 206 207 214 219 214 225 228 227 226 223 238 246 239 238 260 268 278 294 308 318 319 319 315 317 316 320 321 320 326 330 332
221 217 210 208 209 214 212 210 215 213 214 218 217 217 224 231 231 233 238 246 248 248 249 259 261 262 275 286 294 314 323 325 326 323 314 312 306 304 308 307 317 327 336
222 221 217 213 214 217 218 215 219 223 225 225 227 225 231 236 242 242 245 250 253 253 256 256 256 259 285 305 314 314 319 328 334 328 322 316 310 303 307 310 314 326 330
220 226 223 220 217 218 220 218 223 229 232 235 236 239 237 240 245 250 253 253 258 259 256 260 269 281 270 278 286 302 327 349 339 317 312 313 322 317 315 307 310 311 317
217 226 230 227 223 221 220 219 219 224 233 239 240 244 247 247 246 252 253 252 256 260 250 267 260 261 269 281 288 303 322 336 330 327 302 302 309 307 297 289 293 310 311
220 221 228 230 225 221 221 221 222 225 229 234 239 242 244 249 251 250 250 251 252 257 257 259 255 261 268 282 289 293 307 314 328 323 318 323 322 311 300 293 307 301 301
219 218 226 229 227 222 225 228 231 234 236 242 243 244 247 244 246 253 246 245 251 254 248 248 253 261 267 273 280 289 302 310 321 323 321 315 302 279 292 286 294 303 314
219 221 226 225 226 222 222 224 229 237 241 240 237 238 241 246 241 250 244 242 245 246 248 241 246 253 260 267 271 279 279 268 279 307 301 292 291 299 299 290 298 309 308
222 224 224 224 226 224 222 224 225 229 233 239 241 245 245 252 249 245 248 249 247 250 250 251 254 260 264 268 268 268 274 275 281 283 290 289 289 291 290 283 294 308 303
222 223 221 222 220 223 221 225 228 232 237 243 243 243 242 243 249 249 248 249 248 249 252 253 254 264 268 272 269 271 276 274 269 265 271 289 284 279 281 297 292 296 300
221 221 220 220 221 222 222 225 229 234 238 238 239 244 248 248 249 250 247 251 250 250 251 254 253 257 264 268 264 267 265 271 275 271 272 283 286 281 282 285 287 278 300